Perry, FL

9:04 PM EST on February 09, 2016 (GMT -0500)
Perry

Weather History for K40J - May, 2014

Change the Weather History Date:

Thursday, May 8, 2014

  Actual Average (KCTY) Record (KCTY)
Temperature  
Mean Temperature 75 °F 72 °F  
Max Temperature 86 °F 86 °F 91 °F (2015)
Min Temperature 64 °F 59 °F 48 °F (2007)
Degree Days  
Heating Degree Days 0 0  
Month to date heating degree days 0  
Since 1 July heating degree days 1303  
Cooling Degree Days 10 7  
Month to date cooling degree days 52  
Year to date cooling degree days 234  
Growing Degree Days 25 (Base 50)    
Moisture  
Dew Point 65 °F    
Average Humidity 78    
Maximum Humidity 100    
Minimum Humidity 40    
Precipitation  
Precipitation 0.00 in 0.08 in 0.64 in (2012)
Month to date precipitation 0.56  
Year to date precipitation 15.04  
Sea Level Pressure  
Sea Level Pressure 30.16 in    
Wind  
Wind Speed 4 mph (South)    
Max Wind Speed 12 mph    
Max Gust Speed 20 mph    
Visibility 9 miles    
Events Fog    
T = Trace of Precipitation, MM = Missing Value Source: NWS Daily Summary

Daily Weather History Graph

Daily Weather History Graph

Search for Another Location

Airport or City:

Trip Planner

Search our weather history database for the weather conditions in past years. The results will help you decide how hot, cold, wet, or windy it might be!

Date:

Astronomy

May. 08, 2014 Rise Set
Actual Time 6:45 AM EDT 8:16 PM EDT
Civil Twilight 6:19 AM EDT 8:42 PM EDT
Nautical Twilight 5:49 AM EDT 9:13 PM EDT
Astronomical Twilight 5:16 AM EDT 9:45 PM EDT
Moon 2:41 PM EDT (5/8) 2:49 AM EDT (5/8)
Length of Visible Light 14h 22m
Length of Day
13h 30m
Waxing Gibbous, 64% of the Moon is Illuminated
May 8
Waxing Gibbous
May 14
Full
May 21
Last Quarter
May 28
New
Jun 5
First Quarter

Hourly Weather History & Observations

Time (EDT) Temp. Heat Index Dew Point Humidity Pressure Visibility Wind Dir Wind Speed Gust Speed Precip Events Conditions
12:15 AM 66.2 °F - 66.2 °F 100% 30.12 in 0.2 mi Calm Calm - N/A Fog Fog
12:35 AM 66.2 °F - 66.2 °F 100% 30.13 in 0.2 mi Calm Calm - N/A Fog Fog
12:55 AM 64.4 °F - 64.4 °F 100% 30.13 in 0.2 mi Calm Calm - N/A Fog Fog
1:15 AM 68.0 °F - 68.0 °F 100% 30.13 in 4.0 mi East 4.6 mph - N/A   Clear
1:35 AM 68.0 °F - 68.0 °F 100% 30.13 in 3.0 mi East 3.5 mph - N/A   Clear
1:55 AM 68.0 °F - 68.0 °F 100% 30.14 in 2.5 mi Calm Calm - N/A   Mostly Cloudy
2:15 AM 68.0 °F - 68.0 °F 100% 30.13 in 3.0 mi Calm Calm - N/A   Scattered Clouds
2:35 AM 68.0 °F - 68.0 °F 100% 30.13 in 3.0 mi Calm Calm - N/A   Clear
2:55 AM 68.0 °F - 68.0 °F 100% 30.12 in 2.5 mi Calm Calm - N/A   Clear
3:15 AM 68.0 °F - 68.0 °F 100% 30.12 in 4.0 mi Calm Calm - N/A   Clear
3:35 AM 68.0 °F - 68.0 °F 100% 30.12 in 7.0 mi East 3.5 mph - N/A   Clear
3:55 AM 68.0 °F - 68.0 °F 100% 30.12 in 10.0 mi ESE 5.8 mph - N/A   Clear
4:15 AM 68.0 °F - 68.0 °F 100% 30.13 in 10.0 mi SE 5.8 mph - N/A   Clear
4:35 AM 68.0 °F - 68.0 °F 100% 30.13 in 10.0 mi SE 5.8 mph - N/A   Clear
4:55 AM 68.0 °F - 68.0 °F 100% 30.13 in 10.0 mi SE 5.8 mph - N/A   Clear
5:15 AM 68.0 °F - 68.0 °F 100% 30.13 in 10.0 mi SE 6.9 mph - N/A   Clear
5:35 AM 68.0 °F - 68.0 °F 100% 30.13 in 10.0 mi SE 5.8 mph - N/A   Clear
5:55 AM 66.2 °F - 66.2 °F 100% 30.14 in 10.0 mi SE 5.8 mph - N/A   Clear
6:15 AM 66.2 °F - 66.2 °F 100% 30.15 in 10.0 mi SE 5.8 mph - N/A   Clear
6:35 AM 66.2 °F - 66.2 °F 100% 30.15 in 10.0 mi SE 5.8 mph - N/A   Clear
6:55 AM 64.4 °F - 64.4 °F 100% 30.16 in 10.0 mi SE 4.6 mph - N/A   Clear
7:15 AM 64.4 °F - 64.4 °F 100% 30.17 in 10.0 mi SE 4.6 mph - N/A   Clear
7:35 AM 66.2 °F - 66.2 °F 100% 30.18 in 10.0 mi SE 4.6 mph - N/A   Clear
7:55 AM 68.0 °F - 68.0 °F 100% 30.19 in 10.0 mi SE 4.6 mph - N/A   Clear
8:15 AM 69.8 °F - 69.8 °F 100% 30.19 in 10.0 mi SE 3.5 mph - N/A   Clear
8:35 AM 69.8 °F - 69.8 °F 100% 30.20 in 10.0 mi SE 4.6 mph - N/A   Clear
8:55 AM 71.6 °F - 71.6 °F 100% 30.20 in 10.0 mi SE 4.6 mph - N/A   Clear
9:15 AM 73.4 °F - 73.4 °F 100% 30.21 in 10.0 mi SSE 8.1 mph - N/A   Clear
9:35 AM 75.2 °F - 73.4 °F 94% 30.21 in 10.0 mi SSE 5.8 mph - N/A   Clear
9:55 AM 77.0 °F - 71.6 °F 83% 30.22 in 10.0 mi South 8.1 mph - N/A   Clear
10:15 AM 78.8 °F - 68.0 °F 69% 30.22 in 10.0 mi South 9.2 mph 16.1 mph N/A   Clear
10:35 AM 78.8 °F - 68.0 °F 69% 30.22 in 10.0 mi South 8.1 mph - N/A   Clear
10:55 AM 80.6 °F 83.2 °F 68.0 °F 65% 30.22 in 10.0 mi SSE 9.2 mph - N/A   Clear
11:15 AM 80.6 °F 82.7 °F 66.2 °F 61% 30.22 in 10.0 mi South 9.2 mph - N/A   Clear
11:35 AM 80.6 °F 82.3 °F 64.4 °F 58% 30.22 in 10.0 mi South 10.4 mph - N/A   Clear
11:55 AM 82.4 °F 83.9 °F 64.4 °F 54% 30.21 in 10.0 mi SSE 10.4 mph - N/A   Clear
12:15 PM 82.4 °F 84.6 °F 66.2 °F 58% 30.21 in 10.0 mi South 6.9 mph - N/A   Clear
12:35 PM 82.4 °F 83.9 °F 64.4 °F 54% 30.21 in 10.0 mi South 9.2 mph - N/A   Clear
12:55 PM 82.4 °F 83.9 °F 64.4 °F 54% 30.20 in 10.0 mi South 9.2 mph - N/A   Clear
1:15 PM 84.2 °F 85.0 °F 62.6 °F 48% 30.19 in 10.0 mi South 8.1 mph - N/A   Clear
1:35 PM 84.2 °F 84.4 °F 60.8 °F 45% 30.20 in 10.0 mi SSW 11.5 mph - N/A   Clear
1:55 PM 84.2 °F 83.8 °F 59.0 °F 42% 30.19 in 10.0 mi South 9.2 mph 17.3 mph N/A   Clear
2:15 PM 84.2 °F 83.8 °F 59.0 °F 42% 30.18 in 10.0 mi SSW 10.4 mph - N/A   Clear
2:35 PM 86.0 °F 86.1 °F 60.8 °F 43% 30.18 in 10.0 mi South 4.6 mph - N/A   Clear
2:55 PM 86.0 °F 85.4 °F 59.0 °F 40% 30.18 in 10.0 mi SW 11.5 mph 19.6 mph N/A   Clear
3:15 PM 86.0 °F 86.1 °F 60.8 °F 43% 30.17 in 10.0 mi SSW 11.5 mph 17.3 mph N/A   Clear
3:35 PM 86.0 °F 86.1 °F 60.8 °F 43% 30.16 in 10.0 mi SSW 9.2 mph - N/A   Clear
3:55 PM 86.0 °F 86.1 °F 60.8 °F 43% 30.16 in 10.0 mi SW 10.4 mph - N/A   Clear
4:35 PM 84.2 °F 84.4 °F 60.8 °F 45% 30.15 in 10.0 mi SSW 10.4 mph - N/A   Clear
4:55 PM 84.2 °F 83.8 °F 59.0 °F 42% 30.15 in 10.0 mi SSW 9.2 mph - N/A   Clear
5:15 PM 84.2 °F 83.5 °F 57.2 °F 40% 30.14 in 10.0 mi SSW 8.1 mph - N/A   Clear
5:35 PM 84.2 °F 83.8 °F 59.0 °F 42% 30.14 in 10.0 mi SW 8.1 mph 17.3 mph N/A   Clear
5:55 PM 82.4 °F 82.5 °F 59.0 °F 45% 30.14 in 10.0 mi SW 9.2 mph - N/A   Clear
6:15 PM 82.4 °F 82.5 °F 59.0 °F 45% 30.14 in 10.0 mi SSW 10.4 mph - N/A   Clear
6:35 PM 82.4 °F 82.9 °F 60.8 °F 48% 30.14 in 10.0 mi SW 9.2 mph - N/A   Clear
6:55 PM 80.6 °F 81.5 °F 60.8 °F 51% 30.14 in 10.0 mi WSW 9.2 mph - N/A   Clear
7:15 PM 80.6 °F 81.5 °F 60.8 °F 51% 30.14 in 10.0 mi WSW 6.9 mph - N/A   Clear
7:35 PM 78.8 °F - 62.6 °F 57% 30.14 in 10.0 mi WSW 6.9 mph - N/A   Clear
7:55 PM 78.8 °F - 62.6 °F 57% 30.15 in 10.0 mi SW 4.6 mph - N/A   Clear
8:15 PM 75.2 °F - 64.4 °F 69% 30.15 in 10.0 mi WSW 4.6 mph - N/A   Clear
8:35 PM 73.4 °F - 64.4 °F 73% 30.16 in 10.0 mi Calm Calm - N/A   Clear
8:55 PM 73.4 °F - 64.4 °F 73% 30.16 in 10.0 mi Calm Calm - N/A   Clear
9:15 PM 71.6 °F - 64.4 °F 78% 30.16 in 10.0 mi Calm Calm - N/A   Clear
9:35 PM 69.8 °F - 68.0 °F 94% 30.16 in 10.0 mi Calm Calm - N/A   Clear
9:55 PM 69.8 °F - 68.0 °F 94% 30.16 in 10.0 mi Calm Calm - N/A   Clear
10:15 PM 69.8 °F - 68.0 °F 94% 30.16 in 10.0 mi Calm Calm - N/A   Clear
10:35 PM 68.0 °F - 68.0 °F 100% 30.16 in 10.0 mi Calm Calm - N/A   Clear
10:55 PM 68.0 °F - 68.0 °F 100% 30.17 in 10.0 mi Calm Calm - N/A   Clear
11:15 PM 68.0 °F - 68.0 °F 100% 30.17 in 10.0 mi Calm Calm - N/A   Clear
11:35 PM 66.2 °F - 66.2 °F 100% 30.17 in 10.0 mi Calm Calm - N/A   Clear
11:55 PM 66.2 °F - 66.2 °F 100% 30.16 in 10.0 mi Calm Calm - N/A   Clear